Temp
18 18 19 18 20 18 20 21 18 21 22 22 21 21 23 22 24 25 25 25 25 25 24 22 21 21 20 19 19 19 19 19 19 19 18 18 18 18 18 17 17 17 17 16 16 16 16 16 16
18 19 19 18 20 21 23 18 20 20 21 21 23 22 22 24 24 25 25 25 25 25 24 22 22 21 20 20 19 19 19 19 19 18 18 18 18 18 18 17 17 17 17 16 16 16 16 16 16
18 18 18 17 16 21 22 19 19 20 21 21 22 22 23 24 23 25 25 25 25 24 24 23 22 22 21 20 19 19 19 18 18 18 18 18 18 18 18 17 17 17 16 16 16 16 16 16 16
17 18 16 19 20 18 19 20 18 20 20 22 21 23 22 22 22 23 24 25 25 25 24 23 23 23 22 21 20 19 18 18 18 18 18 18 18 18 17 17 17 17 16 16 16 16 16 16 16
17 17 18 18 18 17 17 17 19 21 20 21 21 22 21 22 22 22 23 24 25 24 23 22 22 22 21 20 20 19 19 19 18 18 18 18 18 18 17 17 17 17 17 16 16 16 16 15 15
17 15 18 19 19 17 17 19 19 20 19 20 21 20 22 22 22 22 22 23 24 23 23 22 21 21 21 20 20 19 19 19 19 18 18 18 18 17 17 17 17 17 17 16 16 16 15 15 15
16 17 17 17 17 18 19 19 20 20 19 20 20 21 21 21 21 22 22 23 23 22 22 22 22 21 20 20 19 19 19 19 19 19 18 18 17 17 17 17 17 17 17 16 16 15 15 15 15
16 17 15 16 18 19 18 18 19 19 20 19 19 21 21 20 21 22 22 22 22 21 21 22 21 21 20 20 19 18 18 18 19 19 18 18 17 17 17 17 17 17 16 16 16 15 14 14 14
15 16 16 16 16 19 17 18 18 18 18 18 19 19 20 20 21 21 20 22 22 21 21 20 20 21 20 20 19 19 18 18 18 18 18 17 17 17 17 17 17 16 16 16 16 15 14 14 14
15 15 16 15 16 18 17 16 17 17 18 18 18 19 20 20 20 21 20 20 22 21 20 20 20 20 20 20 19 19 18 18 17 18 17 17 17 17 17 17 16 16 16 16 15 14 14 14 14
12 16 14 15 15 15 16 17 17 17 18 18 18 18 19 20 20 20 20 20 21 21 20 20 20 20 20 19 19 19 19 18 18 17 17 17 17 17 16 16 16 15 15 15 15 14 14 14 14
14 13 14 14 15 14 15 16 17 17 17 17 18 19 19 20 20 20 21 20 21 20 20 20 20 20 20 19 19 19 20 20 19 19 18 18 17 17 16 16 16 15 15 15 15 15 14 14 14
13 14 13 14 14 14 15 15 16 16 17 18 18 18 19 19 20 20 21 20 19 21 21 20 20 20 20 20 19 19 20 20 20 20 20 19 18 17 17 16 16 15 15 15 15 15 14 14 14
13 13 13 13 14 14 15 16 14 16 17 16 16 17 18 18 19 20 20 21 21 20 21 22 21 20 20 20 19 19 19 19 20 20 20 19 19 18 18 17 16 15 15 14 15 15 15 14 14
13 13 13 14 14 14 13 15 15 15 15 15 16 17 17 18 19 19 20 20 20 21 20 20 21 21 21 21 20 20 20 20 20 20 20 19 19 19 18 17 17 16 15 14 14 14 14 14 14
13 12 13 14 14 14 15 15 16 15 14 15 15 15 17 17 18 19 19 20 20 21 21 21 20 20 20 20 20 20 20 20 19 20 20 19 19 18 18 17 16 17 15 14 14 14 14 14 14
11 12 12 13 14 13 14 14 15 15 14 15 15 15 16 17 18 18 19 19 19 19 20 20 20 20 21 20 20 19 19 19 19 19 19 19 18 18 18 17 16 15 15 15 14 13 13 13 13
11 11 11 11 13 13 12 13 13 13 14 14 14 14 16 16 17 17 18 18 18 19 19 19 19 20 20 21 20 19 18 18 19 19 19 18 18 18 18 18 17 17 15 15 14 14 13 13 13
10 10 10 11 12 11 12 12 13 13 13 13 13 14 13 12 14 16 17 17 17 17 17 18 19 20 20 21 21 20 20 19 18 18 18 17 18 17 17 17 17 16 15 15 15 14 13 13 12
10 10 10 10 11 11 12 12 14 13 13 13 10 9 9 10 13 14 15 16 16 16 17 18 18 19 19 20 21 20 21 19 17 17 17 17 17 17 17 16 16 16 14 13 14 14 13 12 12
9 8 8 8 9 10 11 14 13 13 10 10 10 9 9 8 8 12 14 14 15 16 16 17 18 18 18 19 19 17 14 13 15 17 18 18 17 16 15 15 14 14 14 13 13 14 14 12 12
9 8 8 9 10 10 11 11 13 11 10 10 9 9 9 8 11 11 13 14 14 15 15 16 17 18 18 18 15 13 13 13 13 17 19 17 17 17 15 14 14 14 14 13 13 13 13 14 13
8 8 9 9 9 8 10 9 12 9 9 9 8 8 7 7 6 7 9 11 13 14 15 16 16 16 17 16 13 13 13 14 13 14 14 17 17 17 16 14 12 13 13 15 13 13 12 13 12
8 8 8 7 8 8 6 7 10 9 7 8 8 7 6 5 5 5 6 7 10 12 13 14 13 14 12 12 12 13 13 14 16 16 15 13 16 16 15 16 14 14 13 13 13 13 13 13 12
7 8 9 8 8 9 7 8 9 9 9 8 7 7 6 5 5 4 4 6 8 8 9 11 11 12 12 11 12 12 13 15 15 14 13 12 13 15 15 14 14 14 14 13 13 12 13 12 12
6 7 6 5 6 7 7 7 9 9 9 8 7 6 6 5 2 2 2 1 3 5 8 9 10 10 10 10 10 11 14 15 15 12 11 12 12 13 13 14 14 14 14 13 13 12 12 12 12
6 6 6 5 5 5 6 7 9 9 9 7 6 4 4 2 1 0 1 -0 -1 1 2 3 6 7 7 9 10 11 12 13 12 12 13 12 12 11 11 12 12 12 13 13 12 12 13 12 12
6 6 5 4 3 4 6 6 7 7 6 6 5 2 1 0 -0 -1 0 -1 0 -1 0 2 2 5 8 9 9 10 12 13 13 13 11 12 11 11 11 11 11 11 12 12 12 12 12 12 12
5 5 4 4 4 4 4 7 6 5 5 5 2 1 -0 -0 -1 -1 -2 -0 -1 1 -1 -1 1 3 2 8 9 10 10 11 11 11 11 10 10 10 11 10 10 11 11 11 11 12 12 12 12
5 5 3 3 3 4 4 6 5 5 4 2 1 1 -0 -1 -2 -2 -3 -2 -1 -2 1 -3 -0 -0 1 4 8 10 10 10 11 10 10 10 10 11 11 11 10 10 10 10 11 11 11 11 11
Height
1517 1518 1518 1518 1523 1523 1520 1515 1518 1514 1511 1508 1507 1506 1504 1502 1499 1503 1490 1491 1496 1500 1503 1505 1508 1511 1513 1515 1517 1517 1519 1521 1523 1525 1528 1529 1531 1533 1534 1535 1536 1538 1540 1541 1541 1542 1543 1544 1545
1516 1517 1518 1518 1522 1521 1512 1517 1515 1513 1510 1505 1502 1502 1503 1498 1496 1493 1489 1490 1495 1499 1502 1505 1508 1510 1512 1514 1516 1517 1519 1520 1522 1525 1527 1530 1532 1533 1534 1536 1537 1539 1540 1541 1542 1543 1544 1545 1546
1516 1517 1518 1520 1528 1518 1513 1514 1514 1512 1508 1506 1503 1502 1501 1499 1496 1494 1491 1492 1495 1499 1501 1503 1506 1509 1511 1513 1515 1517 1518 1520 1522 1525 1527 1529 1532 1533 1535 1536 1537 1539 1540 1541 1542 1544 1545 1546 1547
1516 1518 1521 1518 1515 1516 1513 1510 1512 1512 1509 1507 1505 1504 1502 1502 1499 1496 1495 1494 1496 1498 1500 1502 1502 1505 1508 1511 1514 1517 1519 1521 1523 1524 1526 1529 1531 1533 1535 1536 1538 1539 1540 1541 1542 1544 1545 1547 1548
1515 1517 1519 1520 1516 1514 1511 1510 1510 1507 1508 1507 1506 1506 1502 1499 1496 1494 1495 1497 1497 1498 1500 1503 1505 1506 1508 1510 1512 1515 1518 1520 1522 1524 1526 1528 1530 1533 1535 1536 1538 1539 1540 1542 1543 1544 1545 1547 1549
1516 1518 1521 1517 1510 1510 1508 1508 1509 1507 1507 1506 1505 1504 1501 1500 1497 1495 1495 1496 1498 1501 1502 1503 1505 1508 1509 1511 1512 1514 1517 1519 1522 1524 1526 1528 1531 1533 1535 1536 1538 1539 1541 1542 1543 1544 1545 1547 1549
1515 1518 1520 1518 1512 1508 1506 1506 1506 1505 1505 1506 1506 1502 1499 1498 1496 1495 1495 1496 1498 1501 1501 1502 1505 1506 1509 1512 1514 1516 1518 1519 1521 1523 1525 1527 1530 1532 1534 1536 1538 1539 1541 1542 1543 1544 1546 1548 1550
1516 1518 1523 1518 1512 1506 1504 1504 1505 1506 1505 1505 1504 1501 1497 1496 1495 1494 1492 1495 1497 1500 1502 1501 1503 1504 1506 1509 1514 1517 1519 1520 1521 1523 1525 1527 1529 1531 1534 1535 1537 1539 1541 1542 1543 1544 1546 1548 1550
1516 1519 1517 1514 1516 1503 1503 1504 1504 1505 1504 1504 1503 1502 1500 1496 1494 1491 1490 1491 1494 1497 1499 1501 1502 1504 1505 1508 1511 1515 1518 1520 1522 1523 1524 1526 1528 1530 1532 1534 1536 1538 1539 1541 1543 1543 1546 1548 1550
1514 1516 1512 1511 1508 1504 1502 1503 1503 1504 1502 1500 1499 1497 1497 1494 1492 1490 1488 1487 1490 1492 1495 1497 1500 1502 1505 1507 1509 1512 1515 1517 1519 1521 1522 1524 1526 1528 1531 1533 1535 1537 1538 1540 1541 1543 1545 1547 1549
1513 1508 1509 1507 1506 1506 1503 1498 1501 1499 1497 1498 1494 1493 1493 1491 1489 1488 1486 1485 1485 1489 1492 1495 1497 1500 1502 1504 1505 1507 1509 1512 1516 1518 1520 1522 1524 1526 1528 1531 1533 1535 1536 1538 1539 1541 1543 1545 1547
1512 1509 1509 1507 1506 1504 1502 1499 1493 1495 1492 1493 1493 1491 1489 1489 1487 1486 1483 1483 1484 1485 1489 1492 1494 1496 1499 1501 1502 1504 1506 1509 1511 1514 1517 1519 1521 1523 1525 1527 1530 1532 1534 1536 1538 1538 1540 1543 1545
1510 1509 1508 1507 1505 1502 1499 1497 1495 1489 1488 1488 1488 1488 1487 1486 1485 1483 1482 1481 1482 1483 1486 1488 1490 1492 1495 1497 1500 1502 1504 1505 1507 1508 1511 1514 1517 1520 1522 1524 1526 1528 1531 1533 1535 1537 1538 1541 1543
1508 1508 1505 1502 1499 1497 1494 1491 1494 1487 1486 1486 1485 1484 1484 1482 1481 1479 1478 1478 1477 1478 1481 1484 1487 1489 1492 1494 1496 1499 1501 1503 1504 1505 1506 1508 1510 1514 1517 1519 1522 1524 1527 1530 1532 1534 1536 1538 1541
1505 1505 1501 1496 1497 1495 1493 1490 1488 1487 1486 1484 1483 1481 1480 1479 1477 1475 1474 1473 1474 1474 1476 1477 1480 1483 1486 1489 1492 1493 1495 1497 1499 1500 1502 1504 1505 1507 1510 1513 1516 1519 1522 1525 1529 1531 1533 1536 1538
1502 1505 1500 1494 1496 1494 1493 1489 1488 1485 1485 1483 1479 1478 1477 1475 1474 1471 1470 1469 1470 1470 1472 1472 1473 1475 1479 1482 1484 1487 1488 1490 1492 1494 1496 1497 1499 1502 1505 1508 1510 1512 1517 1521 1523 1526 1528 1531 1534
1507 1505 1504 1499 1494 1495 1495 1492 1489 1486 1483 1482 1479 1474 1473 1471 1470 1469 1467 1467 1467 1466 1467 1467 1467 1467 1469 1472 1473 1475 1478 1481 1484 1487 1489 1492 1493 1495 1498 1501 1505 1509 1511 1513 1517 1520 1523 1527 1530
1508 1510 1508 1505 1496 1495 1494 1489 1490 1487 1483 1478 1475 1472 1470 1468 1467 1466 1464 1463 1463 1463 1464 1464 1464 1463 1464 1464 1464 1466 1468 1471 1474 1477 1480 1484 1488 1490 1493 1495 1498 1501 1505 1507 1510 1514 1518 1522 1525
1510 1511 1507 1503 1500 1496 1488 1488 1484 1481 1479 1475 1470 1469 1469 1466 1463 1461 1460 1458 1457 1457 1458 1458 1457 1457 1456 1454 1453 1454 1454 1458 1463 1467 1473 1479 1482 1485 1487 1489 1491 1495 1498 1501 1504 1508 1512 1516 1520
1508 1509 1508 1504 1501 1496 1484 1480 1474 1476 1476 1476 1475 1473 1469 1463 1458 1456 1455 1453 1452 1450 1450 1450 1448 1449 1448 1447 1445 1444 1446 1448 1452 1458 1466 1472 1479 1480 1482 1483 1485 1487 1491 1494 1496 1501 1503 1508 1513
1509 1512 1513 1513 1506 1496 1486 1466 1474 1476 1479 1477 1473 1472 1469 1467 1462 1454 1448 1446 1445 1442 1441 1440 1439 1437 1438 1437 1437 1436 1439 1443 1445 1448 1455 1463 1471 1475 1476 1480 1482 1484 1487 1488 1490 1494 1495 1498 1503
1509 1514 1512 1508 1504 1498 1495 1477 1470 1479 1480 1480 1479 1475 1470 1465 1459 1454 1448 1441 1437 1434 1432 1431 1429 1427 1425 1426 1426 1427 1427 1432 1434 1439 1448 1454 1460 1464 1465 1475 1479 1480 1485 1485 1484 1488 1490 1491 1494
1512 1511 1508 1505 1502 1500 1496 1497 1468 1479 1482 1483 1481 1478 1473 1468 1462 1455 1446 1438 1432 1428 1423 1417 1417 1416 1414 1415 1418 1422 1425 1431 1434 1438 1444 1451 1453 1457 1461 1467 1463 1475 1478 1480 1480 1481 1485 1487 1487
1514 1510 1502 1505 1504 1498 1507 1505 1474 1482 1486 1483 1483 1480 1475 1469 1462 1454 1445 1435 1425 1420 1416 1411 1409 1407 1408 1410 1414 1416 1421 1425 1429 1437 1438 1447 1448 1449 1453 1454 1460 1463 1467 1471 1473 1475 1478 1480 1481
1514 1505 1495 1497 1498 1494 1503 1497 1482 1481 1482 1481 1480 1477 1474 1469 1462 1457 1444 1427 1418 1416 1412 1410 1408 1407 1406 1407 1411 1413 1413 1416 1422 1434 1435 1444 1445 1446 1449 1448 1452 1455 1457 1462 1464 1466 1469 1472 1473
1518 1515 1512 1516 1512 1503 1502 1495 1483 1484 1482 1481 1479 1476 1471 1466 1462 1457 1443 1433 1424 1418 1411 1408 1408 1409 1408 1407 1407 1411 1409 1411 1417 1431 1437 1444 1442 1443 1444 1443 1445 1448 1451 1454 1456 1458 1460 1463 1465
1520 1520 1521 1521 1521 1517 1499 1492 1485 1482 1482 1484 1480 1476 1471 1467 1463 1457 1447 1439 1429 1418 1413 1413 1410 1410 1411 1409 1409 1412 1411 1409 1421 1429 1432 1435 1437 1438 1438 1437 1438 1441 1443 1445 1447 1450 1450 1454 1457
1520 1523 1521 1525 1531 1520 1499 1494 1484 1486 1487 1486 1482 1480 1477 1474 1468 1461 1452 1443 1437 1423 1417 1414 1412 1410 1410 1409 1409 1410 1411 1411 1415 1419 1424 1427 1431 1431 1431 1432 1433 1434 1436 1437 1440 1441 1444 1446 1448
1523 1523 1525 1525 1524 1514 1505 1486 1495 1496 1493 1488 1489 1486 1482 1479 1472 1466 1460 1450 1440 1434 1425 1421 1415 1413 1410 1406 1409 1409 1411 1413 1415 1416 1417 1422 1425 1426 1425 1427 1427 1430 1431 1432 1433 1433 1435 1438 1440
1520 1520 1525 1524 1524 1516 1513 1492 1497 1496 1494 1492 1491 1488 1486 1482 1476 1470 1462 1453 1445 1437 1433 1429 1418 1421 1415 1409 1408 1410 1414 1414 1414 1418 1419 1421 1421 1419 1420 1422 1423 1424 1425 1426 1426 1427 1428 1430 1432
Wind_Speed
2 2 1 1 1 1 2 2 1 1 6 8 9 5 5 5 6 3 5 20 22 23 25 27 26 24 23 22 20 18 17 16 16 16 16 14 13 12 11 12 12 12 11 10 10 10 11 9 9
2 5 3 3 1 2 2 1 2 0 14 13 7 5 4 5 18 9 7 23 23 23 24 26 25 23 22 21 20 18 17 17 17 16 15 14 13 12 12 12 12 11 10 10 9 9 10 9 10
7 6 2 3 2 3 2 1 1 10 10 9 9 4 5 4 6 7 15 27 25 24 24 25 24 22 21 20 20 18 17 17 17 16 15 14 13 13 13 13 12 11 10 10 9 9 10 10 10
6 3 5 2 7 5 5 2 2 7 2 12 10 4 13 14 14 8 23 25 23 26 26 26 23 22 21 20 20 19 17 17 17 16 16 15 14 14 14 13 13 11 10 10 9 9 9 10 10
6 3 1 2 6 4 4 6 8 9 1 6 4 11 7 25 30 11 19 23 25 27 27 25 24 22 21 20 20 19 18 17 17 16 16 16 15 15 15 13 12 10 10 10 9 9 10 10 9
3 2 2 4 8 4 3 9 7 2 2 5 6 10 6 22 27 9 14 26 27 26 27 26 25 22 21 20 20 19 19 18 17 17 17 16 16 16 15 13 11 10 10 9 8 8 10 10 9
4 2 3 5 7 8 3 2 1 3 6 2 9 12 8 23 28 13 14 26 28 29 27 26 25 24 22 20 20 19 19 19 18 17 17 17 17 16 16 14 12 11 10 9 7 8 10 10 9
4 2 4 4 7 9 3 1 3 2 5 14 8 4 12 25 27 20 10 26 29 30 28 27 26 26 25 23 21 20 20 19 19 18 17 17 18 18 17 15 14 12 10 8 7 9 10 10 10
5 2 6 5 5 6 3 4 4 3 14 8 12 12 21 24 23 23 12 23 31 31 30 29 29 27 26 25 23 22 21 20 19 19 19 19 21 20 20 18 16 14 11 10 8 10 11 11 10
5 4 7 4 4 7 11 9 13 8 14 20 20 22 23 22 22 19 17 26 35 34 33 32 30 29 27 26 25 25 25 24 24 23 22 23 23 23 22 20 18 16 13 11 10 11 13 14 14
4 5 5 5 10 10 11 24 17 17 13 16 21 26 23 18 20 20 18 24 36 35 34 33 31 29 29 29 29 29 29 28 27 25 25 24 25 25 24 24 22 20 16 14 13 16 18 17 15
4 6 5 3 6 7 9 14 17 17 22 21 20 21 21 15 19 19 18 19 35 35 33 33 32 32 32 32 32 31 30 29 28 27 26 27 26 26 26 26 25 23 20 16 16 18 19 19 17
4 5 4 7 17 15 16 16 17 22 29 26 20 18 23 24 22 20 17 20 27 37 33 34 34 35 35 34 33 33 32 31 30 29 28 28 28 28 28 27 27 26 24 19 19 20 22 21 20
1 6 14 12 17 16 19 23 9 16 25 21 20 18 16 18 18 21 18 20 22 30 37 34 34 36 36 36 36 35 35 35 33 33 32 31 29 30 30 29 29 28 27 23 21 22 23 24 22
4 6 7 8 6 5 3 6 5 9 14 22 23 23 21 18 20 18 20 20 21 22 29 33 33 33 37 38 38 39 38 38 37 36 35 34 34 33 32 31 31 30 29 26 24 25 25 25 24
3 1 3 3 7 3 5 9 13 8 24 23 26 24 25 21 19 17 17 18 20 21 24 27 29 31 36 40 40 45 43 42 41 41 39 38 37 35 34 34 34 32 30 29 28 27 27 27 25
4 4 7 7 8 4 5 10 9 23 24 22 24 26 25 22 19 19 17 17 17 17 16 18 22 25 27 33 43 48 48 46 45 43 43 41 40 38 37 36 36 36 33 32 32 30 29 29 28
3 5 4 9 6 13 15 15 6 17 17 22 24 24 21 23 22 20 17 16 17 20 20 21 25 26 27 28 35 44 50 51 49 46 44 43 40 40 38 37 35 34 36 35 34 33 30 30 29
3 4 8 8 7 12 11 16 16 21 14 18 18 18 23 23 24 23 22 18 16 17 21 24 27 29 31 35 37 44 50 54 54 50 44 40 37 35 35 34 33 33 34 37 36 34 31 30 29
2 4 6 9 11 11 18 24 17 9 7 10 15 20 23 28 30 28 28 25 25 27 28 28 27 31 35 39 41 41 48 54 57 51 43 34 32 29 30 31 33 34 35 35 34 36 34 32 31
5 3 3 6 11 7 12 11 1 12 14 19 24 23 24 23 27 37 39 39 38 35 32 32 31 29 34 38 43 42 37 36 48 50 43 33 30 29 28 29 31 32 33 35 34 34 36 37 37
2 6 5 9 12 7 9 11 7 7 10 16 23 24 26 30 36 38 40 41 38 37 37 34 29 29 34 37 40 40 40 39 42 45 36 36 37 40 31 28 31 27 31 33 33 35 36 36 36
1 6 9 9 11 6 2 6 3 11 10 14 17 22 24 27 30 35 41 42 41 38 37 39 29 29 31 34 34 37 36 33 29 28 31 31 34 39 36 31 28 26 37 37 33 35 34 38 37
9 5 6 1 2 4 3 4 7 5 8 11 13 18 22 28 31 35 40 40 39 37 28 29 26 26 20 23 31 35 34 31 25 19 20 29 35 35 35 31 38 36 41 40 35 35 35 39 35
7 6 4 2 1 3 5 6 8 13 14 10 17 22 22 26 28 34 38 39 33 17 19 14 12 16 20 25 28 30 32 23 15 16 13 31 32 29 32 32 37 38 38 36 35 37 35 37 39
4 3 1 4 3 9 12 5 4 10 16 19 28 28 28 29 25 31 38 41 31 21 3 11 13 16 18 23 24 21 22 17 12 15 19 23 19 19 23 27 32 33 33 33 34 35 36 37 38
1 2 3 3 4 6 3 5 12 7 15 25 30 31 30 27 33 33 40 42 37 32 27 18 15 17 16 18 19 19 17 19 19 17 15 14 14 16 19 23 25 27 32 33 34 33 32 36 37
1 1 1 2 3 4 5 8 5 15 19 19 22 21 28 30 30 36 35 39 38 30 26 22 17 17 17 16 16 14 12 8 6 7 9 9 12 15 17 18 19 23 27 30 32 34 33 34 35
3 2 2 2 3 3 4 3 3 10 16 16 14 18 22 25 30 32 34 35 37 35 31 26 22 16 15 15 13 12 11 7 3 2 3 6 7 11 14 17 18 20 23 26 29 31 32 34 36
3 4 2 2 2 3 4 5 5 10 16 20 17 15 20 23 26 29 35 37 37 37 33 31 26 21 19 17 14 10 6 6 4 5 6 8 9 10 12 14 20 21 22 24 28 30 33 34 36
Wind_Direction
256 238 177 20 281 7 258 228 301 116 329 319 296 190 219 287 176 214 258 185 176 185 189 190 192 194 194 195 196 195 192 185 181 174 171 169 167 162 158 153 152 155 154 155 159 160 162 162 156
183 156 122 101 140 262 256 267 180 275 311 329 348 299 216 245 234 284 213 168 174 186 189 188 190 194 196 199 199 198 192 185 182 178 174 171 166 164 159 155 153 152 154 158 164 169 173 171 159
143 144 134 79 111 221 267 209 245 315 340 10 349 349 334 292 274 273 178 167 176 187 188 186 187 192 196 199 200 200 192 187 183 179 175 173 169 166 160 154 151 153 158 165 175 175 179 173 169
146 125 56 216 242 231 218 205 259 327 7 14 357 19 320 359 322 281 183 179 179 186 189 187 183 185 189 194 196 195 190 187 184 181 178 176 172 167 162 158 154 156 163 169 179 181 186 185 178
139 94 101 248 255 261 240 279 290 315 19 343 32 338 320 6 356 272 196 191 192 189 190 188 188 185 185 189 190 189 189 187 185 184 181 179 175 170 166 164 163 160 161 165 171 182 189 185 178
86 87 161 240 248 245 242 259 273 281 16 356 3 339 302 354 357 302 224 200 198 198 192 188 189 188 189 191 189 187 188 186 185 184 184 182 179 175 171 168 168 159 158 164 176 190 196 185 178
125 126 216 256 283 289 273 196 196 333 325 27 341 320 299 344 349 315 271 209 200 200 196 189 190 188 190 193 193 190 189 187 185 185 185 184 183 181 179 178 174 168 170 177 186 196 196 189 180
137 141 190 235 272 282 254 348 325 333 304 318 331 322 322 331 336 342 269 220 203 203 202 194 193 191 189 189 192 194 194 192 189 189 189 187 187 188 186 186 182 180 182 188 194 202 197 188 178
146 174 234 234 205 266 232 296 300 291 299 295 307 299 306 317 327 331 277 220 207 207 205 201 200 197 193 189 190 193 197 198 198 196 194 190 192 192 192 192 190 189 194 198 202 203 200 188 186
172 202 225 228 230 271 296 296 302 296 296 293 294 305 309 315 319 323 301 216 210 210 208 206 204 203 200 194 192 195 198 200 203 202 199 198 198 198 199 196 196 196 201 202 206 207 197 191 192
172 228 211 249 253 273 287 292 294 287 281 279 295 305 313 307 309 307 295 237 212 214 212 210 208 208 205 201 198 198 199 203 206 207 206 205 203 202 203 203 201 202 203 205 204 201 200 201 199
264 248 241 289 291 307 281 296 291 275 277 287 293 300 299 303 308 304 286 262 227 219 219 216 213 213 212 209 206 207 206 206 209 210 211 212 210 208 208 209 210 210 211 210 210 206 206 206 203
225 275 293 282 296 284 281 267 270 287 286 299 295 293 295 294 293 292 280 266 252 236 230 224 220 219 218 217 215 216 216 214 215 214 214 216 215 214 214 214 215 215 215 216 213 212 210 211 213
325 293 294 292 279 275 272 281 288 276 295 309 308 309 314 311 302 284 279 265 263 245 241 240 237 231 227 224 222 223 224 225 224 222 220 220 219 218 218 219 219 219 220 221 217 217 218 217 221
282 297 305 279 301 289 342 284 242 334 2 341 334 331 331 324 307 295 281 271 261 255 241 240 239 241 243 240 234 230 230 231 232 232 228 226 226 223 221 221 223 222 222 221 219 217 220 224 225
315 58 331 341 340 334 1 287 313 319 344 332 329 329 331 323 317 301 295 278 263 255 248 248 249 245 244 243 248 241 236 235 236 236 234 230 230 229 228 224 225 224 222 223 222 221 221 224 227
21 306 314 316 316 298 359 292 295 320 328 322 318 320 323 324 319 311 308 288 274 264 256 254 252 252 250 245 242 241 239 237 237 238 240 236 231 231 232 231 228 227 222 223 226 226 224 225 229
305 308 289 294 299 315 297 290 286 300 295 298 298 304 319 324 324 326 320 306 288 272 268 272 266 262 258 259 253 246 241 238 238 239 240 239 237 234 235 237 237 232 225 225 226 228 228 229 229
279 259 283 296 302 321 299 298 296 292 270 280 309 334 339 335 322 311 309 306 304 286 284 278 273 260 259 258 255 243 242 239 237 237 239 243 241 239 238 240 240 238 229 228 227 228 230 232 226
204 310 326 307 329 333 311 308 293 282 292 359 24 359 348 339 332 325 317 308 305 305 295 284 276 266 261 258 259 258 246 242 235 234 237 242 242 237 238 239 240 238 232 228 227 228 228 230 233
99 47 327 307 315 279 321 312 59 28 42 17 10 2 352 341 333 330 321 316 312 308 303 291 273 264 264 263 253 250 238 232 235 234 234 231 227 237 241 243 243 244 239 233 226 228 227 227 230
316 0 317 314 331 321 9 292 292 30 31 18 1 350 344 339 332 327 321 310 302 301 302 297 278 266 263 262 245 238 219 213 222 232 228 222 232 242 243 257 250 256 258 236 230 234 233 231 233
343 311 310 292 284 297 324 262 98 30 24 350 343 335 334 332 330 326 321 310 301 299 299 297 282 276 268 250 236 226 214 213 223 229 222 213 228 232 236 240 252 240 254 247 235 236 239 239 235
323 292 279 105 253 255 70 339 310 358 332 326 332 336 334 332 329 328 323 315 303 295 293 280 279 273 256 227 220 215 214 218 209 218 211 249 225 227 221 235 232 233 244 246 244 243 241 240 242
9 358 339 301 225 279 337 321 286 331 338 336 342 343 346 341 343 344 347 330 319 296 266 245 229 231 217 210 215 217 200 194 213 229 232 244 247 238 233 224 228 234 237 243 246 245 246 243 240
352 29 112 282 283 297 299 252 311 322 333 347 346 348 349 345 4 2 12 12 21 26 136 189 155 139 144 147 150 147 158 173 178 183 226 228 242 241 239 233 234 237 242 247 247 245 247 245 244
51 48 17 297 288 277 265 261 290 303 348 350 350 359 6 23 19 13 14 12 19 32 38 48 99 110 108 115 125 130 136 146 159 179 208 230 233 238 246 245 244 243 243 245 245 246 243 244 245
21 83 203 125 267 267 286 291 270 343 348 350 358 9 10 7 12 15 16 18 12 31 42 47 60 83 97 97 97 99 114 142 180 192 196 227 236 242 246 251 253 246 244 242 242 241 243 245 243
156 164 109 296 236 264 301 299 9 0 353 350 7 8 12 13 20 17 13 15 23 13 24 34 44 56 43 98 86 84 85 93 141 227 249 246 250 254 256 257 255 254 249 242 242 244 244 244 244
200 172 155 211 259 268 271 272 47 25 21 17 357 3 6 9 11 11 10 10 11 19 7 14 33 27 34 54 74 90 70 68 14 301 282 278 275 279 276 272 263 258 258 255 244 245 243 243 244